Location: Caserta
(41.0670°N, 14.3330°E)
Time: 04:34:59
(UTC+02:00)

STARLINK-1341 - Pass Details

Date: 06 October 2020
Orbit: 549 x 550 km, 53.0° (Epoch: 20 October)

Event Time Altitude Azimuth Distance (km) Brightness Sun altitude
Exits shadow 05:38:01 12° 326° (NW) 1,710 5.9 -17.1°
Maximum altitude 05:40:01 16° 357° (N) 1,499 5.9 -16.8°
Drops below altitude 10° 05:42:34 10° 35° (NE) 1,826 6.9 -16.3°
Sets 05:45:35 0° 59° (ENE) 2,720 8.4 -15.7°
